Regional Weather Roundup
Issued by NWS

Home | Current Version | Previous Version | Graphics & Text | Print | Product List | Glossary On
Versions: 1 2 3 4 5 6 7 8 9 10 11 12 13 14 15 16 17 18 19 20 21 22 23 24 25 26 27 28 29 30 31 32 33 34 35 36 37 38 39 40 41 42 43 44 45 46 47 48 49 50
084
ASUS44 KMEG 130900
RWRTN
TENNESSEE HOURLY STATE WEATHER ROUNDUP
NATIONAL WEATHER SERVICE MEMPHIS TN
300 AM CST SAT FEB 13 2016

TNZ002-004-019-021-049-052-054-088>092-131000-
WEST TENNESSEE

CITY           SKY/WX    TMP DP  RH WIND       PRES   REMARKS
MEMPHIS INTL   PTCLDY    32  13  45 N15G21    30.47F WCI  22
NWS MEMPHIS      N/A     30 N/A N/A MISG        N/A
JACKSON        PTCLDY    25  16  68 N10       30.48R WCI  15
DYERSBURG      CLEAR     27   9  46 N15       30.52R WCI  15
UNION CITY     CLEAR     21  12  68 N8        30.50R WCI  12
PARIS          CLEAR     19  10  68 N10       30.48R WCI   8
LEXINGTON      CLEAR     25  10  54 N7        30.44R WCI  17
$$

TNZ008-025-027-028-033-062-065-066-131000-
NORTH MIDDLE TENNESSEE

CITY           SKY/WX    TMP DP  RH WIND       PRES   REMARKS
NASHVILLE      CLOUDY    25  12  58 N8        30.45R WCI  16
CLARKSVILLE    PTCLDY    22  12  65 N13       30.48R WCI  10
COOKEVILLE     PTCLDY    23  10  58 N9        30.36R WCI  13
CROSSVILLE     CLEAR     20  12  71 NW12G21   30.29R WCI   8
$$

TNZ061-075-076-078-094-096-097-131000-
SOUTH MIDDLE TENNESSEE

CITY           SKY/WX    TMP DP  RH WIND       PRES   REMARKS
TULLAHOMA      CLEAR     21  14  73 N12       30.37R WCI   9
WINCHESTER     CLEAR     25  18  74 N9        30.36S WCI  15
MCMINNVILLE    PTCLDY    23  12  63 N12       30.37R WCI  12
COLUMBIA       CLEAR     25  18  74 N8        30.41R WCI  16
SHELBYVILLE    CLEAR     25  16  68 N13       30.41R WCI  13
$$

TNZ017-018-042-046-047-131000-
NORTHEAST TENNESSEE

CITY           SKY/WX    TMP DP  RH WIND       PRES   REMARKS
TRI CITIES     CLOUDY    24   9  52 NW13      30.21R WCI  12
$$

TNZ012-013-036-069-073-074-131000-
CENTRAL EAST TENNESSEE

CITY           SKY/WX    TMP DP  RH WIND       PRES   REMARKS
KNOXVILLE      CLOUDY    27  18  69 N14G21    30.30R WCI  16
OAK RIDGE      CLOUDY    27  13  55 N9        30.33R WCI  18
GATLINBURG     CLOUDY    25  16  68 N10       30.28R WCI  15
$$

TNZ083-085-099-131000-
SOUTHEAST TENNESSEE

CITY           SKY/WX    TMP DP  RH WIND       PRES   REMARKS
CHATTANOOGA    PTCLDY    30  16  56 NW9       30.33R WCI  22
$$

SKY/WX REPORTED AS FAIR MEANS FEW OR NO CLOUDS BELOW
12 THOUSAND FEET.





USA.gov is the U.S. government's official web portal to all federal, state and local government web resources and services.